Estación de Peldehue

Ultimos registro cada 15 minutos 58
Estación Fecha / Hora Temperatura Humedad Lluvia Velocidad Dirección Radiación Presion
58 Peldehue 07-05-2026 14:15 15,7 56,7 0,2 0 190 591,9 940,4
57 Peldehue 07-05-2026 14:00 15,6 53,9 0 0,5 230 615,6 940,7
56 Peldehue 07-05-2026 13:45 15,2 57,9 0 0,5 220 629,4 940,9
55 Peldehue 07-05-2026 13:30 15,6 54,5 0 0 219 644,4 941,3
54 Peldehue 07-05-2026 13:15 14,4 60,1 0 0,5 233 663,1 941,4
53 Peldehue 07-05-2026 13:00 14,8 62,8 0 0 213 670,6 941,3
52 Peldehue 07-05-2026 12:45 13,7 65,1 0 0 198 126,9 942,2
51 Peldehue 07-05-2026 12:30 14,7 63,2 0,2 0 183 793,1 941,6
50 Peldehue 07-05-2026 12:15 13,1 66,3 0 0 222 734,4 941,8
49 Peldehue 07-05-2026 12:00 13,4 59,8 0 0 250 244,4 942,4
48 Peldehue 07-05-2026 11:45 13,6 68,2 0 0 240 700,6 941,8
47 Peldehue 07-05-2026 11:30 12,7 73,3 0 0 254 648,1 941,8
46 Peldehue 07-05-2026 11:15 12,9 74,4 0 0 202 639,4 942,1
45 Peldehue 07-05-2026 11:00 11,7 81 0 0 206 660,6 942
44 Peldehue 07-05-2026 10:45 10,8 84,6 0,2 0 198 631,9 942,1
43 Peldehue 07-05-2026 10:30 9,8 86,5 0 0 216 130,6 942,9
42 Peldehue 07-05-2026 10:15 9,8 87,1 0 0 234 149,4 942,6
41 Peldehue 07-05-2026 10:00 9,5 87,9 0 0 232 146,9 942,4
40 Peldehue 07-05-2026 09:45 9,5 88,9 0 0 226 116,9 942,6
39 Peldehue 07-05-2026 09:30 9,3 89,5 0 0 223 129,4 942,5
38 Peldehue 07-05-2026 09:15 9,3 89,8 0 0 222 89,4 942,4
37 Peldehue 07-05-2026 09:00 9,1 90,4 0 0 227 71,9 942,4
36 Peldehue 07-05-2026 08:45 9,1 91,6 0 0 220 76,9 942,1
35 Peldehue 07-05-2026 08:30 9 91,2 0,2 0 220 44,4 942,1
34 Peldehue 07-05-2026 08:15 8,9 91,3 0 0 233 35,6 942
33 Peldehue 07-05-2026 08:00 8,8 91,3 0 0 227 23,1 941,7
32 Peldehue 07-05-2026 07:45 8,8 92 0 0 227 10,6 941,4
31 Peldehue 07-05-2026 07:30 8,8 91,9 0 0 227 1,9 941,4
30 Peldehue 07-05-2026 07:15 9 92,3 0 0 229 0,6 941,4
29 Peldehue 07-05-2026 07:00 8,8 92,3 0 0 229 0,6 941,1
28 Peldehue 07-05-2026 06:45 8,7 92,6 0,2 0 229 0,6 940,9
27 Peldehue 07-05-2026 06:30 8,6 93,1 0 0 229 0,6 940,8
26 Peldehue 07-05-2026 06:15 8,5 93,3 0 0 229 0,6 940,9
25 Peldehue 07-05-2026 06:00 8,5 93,5 0 0 229 0,6 940,7
24 Peldehue 07-05-2026 05:45 8,5 93,8 0 0 229 0,6 940,6
23 Peldehue 07-05-2026 05:30 8,4 93,8 0 0 229 0,6 940,6
22 Peldehue 07-05-2026 05:15 8,6 94 0 0 226 0,6 940,3
21 Peldehue 07-05-2026 05:00 8,5 94 0,2 0 227 0,6 940
20 Peldehue 07-05-2026 04:45 8,6 94,2 0 0 234 0,6 939,9
19 Peldehue 07-05-2026 04:30 8,7 94,5 0 0 233 0,6 940,1
18 Peldehue 07-05-2026 04:15 8,6 94,5 0 0 230 0,6 940
17 Peldehue 07-05-2026 04:00 8,6 94,4 0 0 234 0,6 939,9
16 Peldehue 07-05-2026 03:45 8,6 94,4 0,2 0 229 0,6 940,1
15 Peldehue 07-05-2026 03:30 8,7 94,4 0 0 227 0,6 940
14 Peldehue 07-05-2026 03:15 8,6 94,3 0 0 248 0,6 940
13 Peldehue 07-05-2026 03:00 8,4 93,8 0 0 230 0,6 939,9
12 Peldehue 07-05-2026 02:45 8,2 93 0 0 220 0,6 939,8
11 Peldehue 07-05-2026 02:30 8,5 92,4 0,2 0 219 0,6 939,8
10 Peldehue 07-05-2026 02:15 9 92 0 0 213 0,6 939,8
9 Peldehue 07-05-2026 02:00 9,4 91,6 0 0 222 0,6 939,8
8 Peldehue 07-05-2026 01:45 9,6 91,5 0,2 0 222 0,6 939,7
7 Peldehue 07-05-2026 01:30 9,6 91,2 0 0,5 218 0,6 939,4
6 Peldehue 07-05-2026 01:15 9,8 91,2 0 0,5 223 0,6 939,4
5 Peldehue 07-05-2026 01:00 9,8 91,4 0,2 0 222 0,6 939,2
4 Peldehue 07-05-2026 00:45 9,8 91,6 0 0 226 0,6 939,4
3 Peldehue 07-05-2026 00:30 9,8 92,5 0,2 0 219 0,6 939,5
2 Peldehue 07-05-2026 00:15 9,9 92,6 0 0 212 0,6 939,4
1 Peldehue 07-05-2026 00:00 10 92,8 0 0 212 0,6 939,5